Location: Kumla
(59.1265°N, 15.1401°E)
Time: 17:05:36
(UTC+01:00)

Vanguard 2 Rocket - Pass Details

Date: 07 December 2023
Orbit: 554 x 3309 km, 32.9° (Epoch: 26 February)

Event Time Altitude Azimuth Distance (km) Brightness Sun altitude
Rises 12:18:00 0° 187° (S) 6,123 13.8 8.1°
Reaches altitude 10° 12:24:40 10° 167° (SSE) 5,612 12.5 8.0°
Maximum altitude 12:32:43 15° 139° (SE) 5,602 11.6 7.8°
Drops below altitude 10° 12:41:32 10° 112° (ESE) 6,254 11.3 7.6°
Sets 12:49:46 0° 94° (E) 7,253 11.4 7.4°
